Location: Riverview Farm Park
(37.0930°N, 76.5291°W)
Time: 21:32:44
(UTC-05:00)

Tiangong 2 - Visible Passes

Search period start: 20 January 2018 00:00
Search period end: 30 January 2018 00:00
Orbit: 384 x 390 km, 42.8° (Epoch: 20 January)

Date Brightness Start Highest point End Pass type
(mag) Time Alt. Az. Time Alt. Az. Time Alt. Az.
20 Jan 4.2 04:52:38 15° ENE 04:52:38 15° ENE 04:53:18 10° ENE visible
20 Jan 1.9 06:24:55 16° WNW 06:27:03 36° NNW 06:30:04 10° ENE visible
21 Jan 2.3 05:29:09 36° NNE 05:29:09 36° NNE 05:31:23 10° ENE visible
22 Jan 2.3 06:05:34 24° NW 06:06:33 30° N 06:09:26 10° ENE visible
23 Jan 3.6 05:09:37 18° NE 05:09:37 18° NE 05:10:41 10° ENE visible
23 Jan 2.4 06:42:07 10° WNW 06:44:58 29° N 06:47:49 10° ENE visible
24 Jan 2.4 05:45:54 27° N 05:46:04 27° N 05:48:52 10° ENE visible
25 Jan 4.4 04:49:52 11° NE 04:49:52 11° NE 04:50:01 10° ENE visible
25 Jan 2.2 06:22:08 15° NW 06:24:26 34° NNE 06:27:23 10° E visible
26 Jan 2.7 05:26:07 27° NNE 05:26:07 27° NNE 05:28:23 10° ENE visible
27 Jan 1.7 06:02:21 25° NW 06:03:50 47° NNE 06:06:55 10° E visible
28 Jan 3.4 05:06:21 23° ENE 05:06:21 23° ENE 05:07:55 10° E visible
28 Jan 1.3 06:38:44 10° WNW 06:41:53 60° SSW 06:45:02 10° SE visible
29 Jan 1.1 05:42:39 59° NW 05:43:08 77° NNE 05:46:18 10° ESE visible
